Weather WX

World > North America > United States > Florida

Miami, Florida Regional Weather

Lat: 25.77N, Lon: 80.2W
Wx Zone: FLZ074
Warning FLW WEATHER ALERT - (More Info. Click Here) Warning
Feedback

Miami, FL Regional Weather

Expires:201907170500;;762871
ASUS42 KTBW 170417
RWRFL 
FLORIDA REGIONAL WEATHER ROUNDUP
NATIONAL WEATHER SERVICE TAMPA BAY RUSKIN FL
1200 AM EDT WED JUL 17 2019

NOTE: "FAIR" INDICATES FEW OR NO CLOUDS BELOW 12,000 FEET WITH NO
SIGNIFICANT WEATHER AND/OR OBSTRUCTIONS TO VISIBILITY.


FLZ067-068-071>074-168-172>174-170500-
SOUTHEAST FLORIDA 
  
CITY           SKY/WX    TMP DP  RH WIND       PRES   REMARKS
W PALM BEACH   FAIR      83  71  67 SE5       30.14S                  
FT LAUDER-EXEC FAIR      83  74  74 E7        30.13S                  
FT LAUDERDALE  FAIR      84  74  71 E10       30.12F                  
POMPANO BEACH  FAIR      85  75  72 E8        30.13S                  
PEMBROKE PINES FAIR      84  74  71 E5        30.14S                  
OPA LOCKA      FAIR      84  75  74 E5        30.14R                  
MIAMI          FAIR      85  73  67 E7        30.13S                  
WEST KENDALL   FAIR      81  75  82 E6        30.12S                  
HOMESTEAD      FAIR      83  76  80 E7        30.11F                  

STATION/POSITION SKY/WX   TEMP    WIND        PRES    WAVE   SWELL
                          AIR SEA DIR/SP/G            HT/PER HT/PER
                          (F)     (DEG/KT/KT) (MB)    (FT/S) (FT/S)
PORT EVERGLADES            85      90/  6/  9 1020.3F
VIRGINIA KEY               85 88   80/ 10/ 12 1019.7F
LAKE WORTH                 84 86  140/  7/  9 1021.7S
FOWEY ROCKS                85 85   90/ 12/ 13 1020.3F
SETTLEMENT POINT           82     160/  4/  5 1020.9R

$$

  

SKY/WX - Weather  TMP - Temperature  DP - Dew Point  RH - Relative Humidity
WIND - Wind Direction/Speed PRES - Barometric Pressure VSB - Visibility
WCI - Wind Chill Index E13G22 Wind - East Wind 13 mph/Gusts of 22 mph